{"data":{"norad_id":53033,"intl_designator":"2022-076AZ","name":"STARLINK-4167","alt_names":[],"object_type":"PAYLOAD","status":"ACTIVE","operator":null,"country":"US","launch_date":"2022-07-07","launch_site_code":"AFETR","launch_vehicle":null,"mission":null,"orbit_class":"UNKNOWN","rcs_meters":null,"size_class":null,"mass_kg":null,"dimensions":null,"purposes":["comms"],"wikipedia_slug":null,"has_3d_model":false,"image_url":null,"decayed_at":null,"tle_current":{"epoch":"2026-09-19T16:36:14.564736Z","epoch_age_seconds":139284,"freshness":"FRESH","line1":"1 53033U 22076AZ  26262.69183524  .00000160  00000+0  15885-4 0  9994","line2":"2 53033  53.1602 277.4728 0001219  85.8087 274.3055 15.34385700232479","mean_motion":15.343857,"eccentricity":0.0001219,"inclination_deg":53.1602,"raan_deg":277.4728,"arg_perigee_deg":85.8087,"mean_anomaly_deg":274.3055,"bstar":1.5885e-5,"rev_number":23247,"period_min":93.848632713404,"perigee_km":461.9118395444,"apogee_km":463.57964675718,"semimajor_km":6840.8827431508,"source":"CELESTRAK","updated_at":"2026-09-20T09:00:40.148485Z"}}}